ARSAT 1

Last updated on Thu Nov 21 2024 00:02:42 GMT+0000 (Coordinated Universal Time)

1 40272U 14062B 24324.99511962 -.00000258 00000+0 00000+0 0 9999 2 40272 0.0614 82.3636 0002333 168.7597 94.8299 1.00270377 36850
UTC large
Height (km)
Speed (km/s)
/
Latitude / Longitude
Inclination (degrees)
Orbital Period (minutes)
Azimuth
Elevation
Range (km)
Doppler Factor

Next 0 passes for location: London (51.5072 / 0.1276)

Sorry there are no passes over London.